FW2897 Weather Reports


Display with metric or nautical units.
time (UTC)temp
F
wind
direction
speed
MPH
gust
MPH
rain 1hr
in
rain 24hr
in
rain mn
in
humidity
%
barometer
mb
20200401114625 40 337 2.0 6.0 0.00 0.06 0.00 81 1010.5
20200401114124 40 355 2.0 6.0 0.00 0.06 0.00 82 1010.6
20200401113555 40 25 2.0 7.0 0.00 0.06 0.00 82 1010.5
20200401113052 40 320 2.0 7.0 0.00 0.06 0.00 82 1010.5
20200401112525 40 350 2.0 6.0 0.00 0.06 0.00 82 1010.3
20200401112023 40 2 2.0 6.0 0.00 0.06 0.00 83 1010.1
20200401111455 40 16 2.0 8.0 0.00 0.06 0.00 83 1010.1
20200401110952 40 9 3.0 8.0 0.00 0.06 0.00 83 1010.1
20200401110425 40 25 2.0 7.0 0.00 0.06 0.00 83 1009.9
20200401105926 40 359 2.0 5.0 0.00 0.06 0.00 83 1009.8
20200401105355 40 344 2.0 6.0 0.00 0.06 0.00 83 1009.8
20200401104856 40 2 2.0 6.0 0.00 0.06 0.00 83 1009.6
20200401104333 40 337 2.0 5.0 0.00 0.06 0.00 83 1009.5
20200401103806 40 2 2.0 4.0 0.00 0.06 0.00 83 1009.5
20200401103241 40 51 1.0 3.0 0.00 0.06 0.00 83 1009.5
20200401102741 40 1 1.0 4.0 0.00 0.06 0.00 83 1009.4
20200401102235 40 354 2.0 6.0 0.00 0.06 0.00 82 1009.4
20200401101733 40 12 2.0 6.0 0.00 0.06 0.00 82 1009.2
20200401101223 40 15 2.0 5.0 0.00 0.06 0.00 82 1009.2
20200401100723 40 23 1.0 5.0 0.00 0.06 0.00 82 1009.2
20200401100223 40 9 1.0 5.0 0.00 0.06 0.00 82 1009.3
20200401095723 40 10 2.0 5.0 0.00 0.06 0.00 82 1009.3
20200401095221 40 9 1.0 5.0 0.00 0.06 0.00 81 1009.4
20200401094700 40 358 1.0 4.0 0.00 0.06 0.00 81 1009.5
20200401094201 40 356 1.0 4.0 0.00 0.06 0.00 81 1009.7
20200401093651 40 347 1.0 4.0 0.00 0.06 0.00 81 1009.5
20200401093151 40 1 1.0 4.0 0.00 0.06 0.00 81 1009.3
20200401092649 40 13 1.0 4.0 0.00 0.06 0.00 81 1009.3
20200401092147 40 25 0.0 3.0 0.00 0.06 0.00 80 1009.4
20200401091622 40 6 1.0 4.0 0.00 0.06 0.00 80 1009.5
20200401091104 40 71 2.0 10.0 0.00 0.06 0.00 80 1009.4
20200401090559 41 13 2.0 10.0 0.00 0.06 0.00 80 1009.5
20200401090100 41 40 2.0 9.0 0.00 0.06 0.00 80 1009.5
20200401085537 41 354 2.0 9.0 0.00 0.06 0.00 80 1009.6
20200401085019 41 13 1.0 5.0 0.00 0.06 0.00 81 1009.6
20200401084521 41 54 1.0 5.0 0.00 0.06 0.00 81 1009.7
20200401084004 41 74 1.0 5.0 0.00 0.06 0.00 81 1009.6
20200401083502 41 11 1.0 5.0 0.00 0.06 0.00 82 1009.6
20200401082938 41 44 1.0 5.0 0.00 0.06 0.00 81 1009.8
20200401082436 41 75 2.0 5.0 0.00 0.06 0.00 81 1009.7
20200401081936 41 170 2.0 5.0 0.00 0.06 0.00 81 1009.7
20200401081432 41 34 2.0 6.0 0.00 0.06 0.00 81 1009.8
20200401080927 41 33 2.0 7.0 0.00 0.06 0.00 81 1009.9
20200401080401 41 36 2.0 7.0 0.00 0.06 0.00 81 1009.9
20200401075859 40 32 2.0 5.0 0.00 0.06 0.00 81 1010.0
20200401075356 41 64 1.0 4.0 0.00 0.06 0.00 82 1010.0
20200401074828 40 75 1.0 4.0 0.00 0.06 0.00 82 1010.0
20200401074325 40 67 1.0 5.0 0.00 0.06 0.00 82 1009.9
20200401073822 41 82 1.0 5.0 0.00 0.06 0.00 82 1009.9
20200401073319 40 349 1.0 4.0 0.00 0.06 0.00 82 1009.8
20200401072756 41 72 1.0 4.0 0.00 0.06 0.00 82 1009.8
20200401072227 40 80 1.0 4.0 0.00 0.06 0.00 82 1009.8
20200401071724 41 73 1.0 8.0 0.00 0.06 0.00 82 1009.9
20200401071158 41 264 1.0 8.0 0.00 0.06 0.00 82 1010.0
20200401070633 41 79 0.0 5.0 0.00 0.06 0.00 82 1010.1
20200401070121 41 88 2.0 11.0 0.00 0.06 0.00 82 1010.2
20200401065552 41 75 2.0 11.0 0.00 0.06 0.00 81 1010.4
20200401065051 41 94 1.0 6.0 0.00 0.06 0.00 81 1010.5
20200401064538 41 58 1.0 6.0 0.00 0.06 0.00 81 1010.6
20200401064048 41 72 1.0 4.0 0.00 0.06 0.00 81 1010.6
20200401063528 41 44 1.0 4.0 0.00 0.06 0.00 80 1010.6
20200401063031 41 95 1.0 4.0 0.00 0.06 0.00 80 1010.7
20200401062526 41 82 1.0 4.0 0.00 0.06 0.00 80 1010.8
20200401062024 41 39 1.0 4.0 0.00 0.06 0.00 81 1010.9
20200401061456 41 246 2.0 7.0 0.00 0.06 0.00 80 1011.1
20200401060929 41 108 2.0 7.0 0.00 0.06 0.00 80 1011.2
20200401060404 41 105 1.0 4.0 0.00 0.06 0.00 80 1011.3
20200401055837 41 77 1.0 3.0 0.00 0.06 0.00 80 1011.4
20200401055335 41 122 1.0 6.0 0.00 0.06 0.00 79 1011.6
20200401054833 41 96 1.0 6.0 0.00 0.06 0.00 79 1011.5
20200401054304 41 90 1.0 5.0 0.00 0.06 0.00 80 1011.4
20200401053801 41 15 1.0 4.0 0.00 0.06 0.00 80 1011.4
20200401053235 41 52 1.0 5.0 0.00 0.06 0.00 80 1011.7
20200401052733 41 59 1.0 5.0 0.00 0.06 0.00 80 1011.9
20200401052206 41 62 1.0 4.0 0.00 0.06 0.00 80 1011.8
20200401051658 41 75 0.0 4.0 0.00 0.06 0.00 80 1011.9
20200401051157 42 38 1.0 7.0 0.00 0.06 0.00 81 1011.9
20200401050628 42 37 1.0 7.0 0.00 0.06 0.00 80 1011.8
20200401050126 42 34 0.0 3.0 0.00 0.06 0.00 80 1011.6
20200401045558 42 81 0.0 2.0 0.00 0.06 0.00 80 1011.6
20200401045056 42 88 0.0 4.0 0.00 0.06 0.00 80 1011.7
20200401044528 42 110 0.0 4.0 0.00 0.06 0.00 80 1011.9
20200401044022 42 37 0.0 2.0 0.00 0.06 0.00 81 1011.9
20200401043519 42 85 0.0 2.0 0.00 0.06 0.00 80 1012.0
20200401043016 42 74 0.0 2.0 0.00 0.06 0.00 80 1012.2
20200401042513 42 97 0.0 2.0 0.00 0.06 0.00 80 1012.3
20200401041946 42 39 0.0 3.0 0.00 0.06 0.00 80 1012.3
20200401041444 42 63 0.0 3.0 0.00 0.06 0.00 80 1012.4
20200401040916 42 296 0.0 2.0 0.00 0.06 0.00 80 1012.5
20200401040414 42 65 0.0 2.0 0.00 0.06 0.00 80 1012.6
20200401035847 42 65 0.0 2.0 0.00 0.06 0.06 80 1012.6
20200401035319 42 121 0.0 2.0 0.00 0.06 0.06 79 1012.5
20200401034817 42 41 0.0 2.0 0.00 0.06 0.06 79 1012.6
20200401034251 42 90 1.0 4.0 0.00 0.06 0.06 79 1012.7
20200401033723 42 195 1.0 4.0 0.00 0.06 0.06 79 1012.8
20200401033223 42 138 1.0 4.0 0.00 0.06 0.06 78 1012.7
20200401032658 42 110 1.0 3.0 0.00 0.06 0.06 79 1012.6
20200401032130 42 301 1.0 3.0 0.00 0.06 0.06 79 1012.7
20200401031608 42 98 1.0 3.0 0.00 0.06 0.06 79 1012.9
20200401031105 42 86 1.0 2.0 0.00 0.06 0.06 78 1013.2
20200401030605 42 97 1.0 3.0 0.00 0.06 0.06 78 1013.4
20200401030102 42 94 1.0 3.0 0.00 0.06 0.06 78 1013.6
20200401025605 42 51 1.0 4.0 0.00 0.06 0.06 78 1013.6
20200401025040 42 24 1.0 6.0 0.00 0.06 0.06 78 1013.3
20200401024519 42 103 1.0 8.0 0.00 0.06 0.06 78 1013.4
20200401024012 42 122 2.0 8.0 0.00 0.06 0.06 78 1013.4
20200401023511 42 330 2.0 6.0 0.00 0.06 0.06 78 1013.4
20200401022949 42 109 1.0 6.0 0.00 0.06 0.06 79 1013.3
20200401022449 42 117 1.0 3.0 0.00 0.06 0.06 79 1013.3
20200401021935 43 98 1.0 3.0 0.00 0.06 0.06 79 1013.3
20200401021431 43 104 1.0 3.0 0.00 0.06 0.06 80 1013.7
20200401020929 43 27 1.0 6.0 0.00 0.06 0.06 80 1013.8
20200401020428 43 84 1.0 6.0 0.00 0.06 0.06 79 1013.9
20200401015911 43 130 1.0 7.0 0.00 0.06 0.06 80 1014.1
20200401015349 43 71 2.0 7.0 0.00 0.06 0.06 80 1014.2
20200401014830 43 77 2.0 8.0 0.00 0.06 0.06 81 1014.3
20200401014330 43 128 2.0 8.0 0.00 0.06 0.06 82 1014.4
20200401013830 43 331 1.0 4.0 0.00 0.06 0.06 83 1014.4
20200401013332 43 61 1.0 5.0 0.00 0.06 0.06 83 1014.5
20200401012815 43 212 2.0 5.0 0.00 0.06 0.06 83 1014.6
20200401012253 43 72 1.0 5.0 0.00 0.06 0.06 83 1014.6
20200401011737 43 117 1.0 5.0 0.00 0.06 0.06 82 1014.8
20200401011234 44 106 1.0 5.0 0.00 0.06 0.06 82 1014.7
20200401010734 44 97 1.0 5.0 0.00 0.06 0.06 82 1014.6
20200401010212 44 100 2.0 5.0 0.00 0.06 0.06 82 1014.8
20200401005647 44 80 1.0 5.0 0.00 0.06 0.06 82 1015.0
20200401005146 44 94 1.0 4.0 0.00 0.06 0.06 82 1015.1
20200401004647 44 117 1.0 5.0 0.00 0.06 0.06 82 1014.9
20200401004144 44 73 1.0 5.0 0.00 0.06 0.06 82 1014.8
20200401003641 44 88 1.0 4.0 0.00 0.06 0.06 82 1014.7
20200401003137 44 87 1.0 4.0 0.00 0.06 0.06 82 1014.6
20200401002632 44 98 1.0 3.0 0.00 0.06 0.06 82 1014.3
20200401002106 44 90 1.0 5.0 0.00 0.06 0.06 82 1014.0
20200401001604 44 117 1.0 5.0 0.00 0.06 0.06 82 1014.0
20200401001102 45 105 1.0 3.0 0.00 0.06 0.06 83 1014.0
20200401000534 45 115 1.0 3.0 0.00 0.06 0.06 82 1014.0
20200401000033 45 10 0.0 3.0 0.00 0.06 0.06 82 1014.0
20200331235505 45 82 0.0 3.0 0.00 0.06 0.06 83 1014.0
20200331234958 45 60 0.0 3.0 0.00 0.06 0.06 83 1013.9
20200331234456 45 95 1.0 7.0 0.00 0.06 0.06 83 1013.9
20200331233929 45 110 1.0 7.0 0.00 0.06 0.06 83 1014.1
20200331233426 45 83 0.0 4.0 0.00 0.06 0.06 82 1014.3
20200331232924 45 54 0.0 4.0 0.00 0.06 0.06 82 1014.3
20200331232357 45 81 1.0 4.0 0.00 0.06 0.06 83 1014.4
20200331231853 45 13 1.0 4.0 0.00 0.06 0.06 83 1014.4
20200331231326 45 77 0.0 4.0 0.00 0.06 0.06 82 1014.1
20200331230825 45 113 1.0 4.0 0.00 0.06 0.06 83 1014.1
20200331230257 45 98 1.0 4.0 0.00 0.06 0.06 83 1013.9
20200331225731 45 105 1.0 4.0 0.00 0.06 0.06 83 1013.9
20200331225228 45 236 1.0 3.0 0.00 0.06 0.06 83 1013.8
20200331224701 45 75 1.0 3.0 0.00 0.06 0.06 83 1013.9
20200331224135 45 101 1.0 5.0 0.00 0.06 0.06 83 1013.9
20200331223631 45 139 1.0 5.0 0.00 0.06 0.06 83 1014.0
20200331223106 46 120 1.0 4.0 0.00 0.06 0.06 83 1013.9
20200331222550 46 94 1.0 5.0 0.00 0.06 0.06 83 1013.9
20200331222050 46 103 1.0 4.0 0.00 0.06 0.06 82 1013.9
20200331221548 46 72 1.0 4.0 0.00 0.06 0.06 82 1013.9
20200331221050 46 89 1.0 4.0 0.00 0.06 0.06 82 1013.8
20200331220522 46 79 0.0 3.0 0.00 0.06 0.06 82 1013.9
20200331220033 46 41 1.0 3.0 0.00 0.06 0.06 82 1013.9
20200331215511 46 96 1.0 5.0 0.00 0.06 0.06 83 1014.0
20200331215008 46 35 1.0 5.0 0.00 0.06 0.06 82 1013.9
20200331214445 46 75 0.0 3.0 0.00 0.06 0.06 83 1013.7
20200331213943 46 68 0.0 3.0 0.00 0.06 0.06 83 1013.8
20200331213406 46 144 1.0 3.0 0.00 0.06 0.06 83 1014.0
20200331212906 46 148 1.0 4.0 0.00 0.06 0.06 83 1014.1
20200331212336 46 76 1.0 4.0 0.00 0.06 0.06 83 1014.1
20200331211833 46 147 1.0 4.0 0.00 0.06 0.06 83 1014.2
20200331211307 46 75 1.0 5.0 0.00 0.06 0.06 83 1014.3
20200331210804 46 85 1.0 5.0 0.00 0.06 0.06 83 1014.2
20200331210301 46 24 1.0 4.0 0.00 0.06 0.06 83 1014.3
20200331205734 46 95 0.0 2.0 0.00 0.06 0.06 84 1014.3
20200331205230 46 61 1.0 3.0 0.00 0.07 0.06 84 1014.4
20200331204727 46 27 1.0 3.0 0.00 0.07 0.06 84 1014.5
20200331204201 46 91 1.0 4.0 0.00 0.07 0.06 84 1014.5
20200331203635 46 91 1.0 4.0 0.00 0.07 0.06 83 1014.4
20200331203108 46 96 1.0 3.0 0.00 0.07 0.06 85 1014.4
20200331202606 46 106 1.0 6.0 0.00 0.07 0.06 83 1014.4
20200331202040 46 79 1.0 6.0 0.00 0.07 0.06 83 1014.4
20200331201534 46 113 1.0 4.0 0.00 0.07 0.06 84 1014.4
20200331201009 46 53 1.0 4.0 0.00 0.07 0.06 83 1014.4
20200331200443 46 59 0.0 2.0 0.00 0.07 0.06 85 1014.5
20200331195919 46 105 1.0 2.0 0.00 0.07 0.06 85 1014.5
20200331195410 46 220 1.0 4.0 0.00 0.07 0.06 85 1014.5
20200331194907 46 128 1.0 4.0 0.00 0.07 0.06 85 1014.5
20200331194348 46 121 1.0 4.0 0.00 0.07 0.06 85 1014.6
20200331193848 46 103 1.0 4.0 0.00 0.07 0.06 86 1014.7
20200331193324 46 148 1.0 4.0 0.00 0.07 0.06 85 1014.6
20200331192822 46 123 1.0 6.0 0.00 0.07 0.06 86 1014.6
20200331192324 46 203 1.0 6.0 0.00 0.07 0.06 86 1014.8
20200331191821 46 91 1.0 3.0 0.00 0.07 0.06 85 1014.9
20200331191322 46 98 0.0 2.0 0.00 0.07 0.06 86 1015.1
20200331190822 46 113 1.0 3.0 0.00 0.07 0.06 86 1015.1
20200331190323 47 104 1.0 4.0 0.00 0.07 0.06 85 1015.2
20200331185759 47 101 1.0 5.0 0.00 0.07 0.06 84 1015.3
20200331185239 47 65 1.0 5.0 0.00 0.07 0.06 84 1015.4
20200331184742 47 218 1.0 3.0 0.00 0.07 0.06 84 1015.6
20200331184225 47 102 1.0 3.0 0.00 0.07 0.06 86 1015.6
20200331183717 47 90 1.0 3.0 0.00 0.07 0.06 87 1015.7
20200331183218 46 86 1.0 3.0 0.00 0.07 0.06 88 1015.9
20200331182701 46 129 1.0 3.0 0.00 0.07 0.06 88 1015.7
20200331182142 46 122 1.0 3.0 0.00 0.07 0.06 88 1015.8
20200331181637 46 70 1.0 3.0 0.00 0.07 0.06 88 1015.9
20200331181119 46 106 1.0 3.0 0.00 0.07 0.06 89 1016.0
20200331180559 46 95 1.0 5.0 0.00 0.07 0.06 89 1015.9
20200331180057 46 150 1.0 5.0 0.00 0.07 0.06 89 1016.0
20200331175600 46 122 1.0 5.0 0.00 0.07 0.06 89 1015.9
20200331175034 46 328 1.0 3.0 0.00 0.07 0.06 89 1015.8
20200331174519 46 96 0.0 3.0 0.00 0.07 0.06 91 1015.9
20200331174017 46 96 0.0 3.0 0.00 0.07 0.06 92 1016.1
20200331173518 45 94 1.0 5.0 0.01 0.07 0.06 92 1016.2
20200331173016 45 103 2.0 5.0 0.01 0.07 0.06 90 1016.3
20200331172514 46 74 2.0 7.0 0.01 0.07 0.06 89 1016.4
20200331172014 46 94 2.0 7.0 0.01 0.07 0.06 90 1016.3
20200331171450 47 350 1.0 4.0 0.01 0.07 0.06 90 1016.5
20200331170947 46 108 1.0 3.0 0.01 0.07 0.06 90 1016.3
20200331170425 46 86 1.0 3.0 0.01 0.07 0.06 91 1016.1
20200331165903 46 93 1.0 4.0 0.01 0.07 0.06 91 1016.0
20200331165332 46 88 1.0 4.0 0.01 0.07 0.06 91 1016.2
20200331164805 46 158 2.0 7.0 0.01 0.07 0.06 91 1016.1
20200331164302 46 70 2.0 7.0 0.01 0.07 0.06 91 1016.2
20200331163737 46 226 2.0 6.0 0.00 0.06 0.05 91 1016.4
20200331163211 46 88 2.0 6.0 0.00 0.06 0.05 89 1016.5
20200331162643 47 127 1.0 5.0 0.00 0.06 0.05 90 1016.4
20200331162140 47 112 1.0 5.0 0.00 0.06 0.05 90 1016.6
20200331161616 47 78 1.0 4.0 0.00 0.06 0.05 91 1016.8
20200331161047 46 84 1.0 4.0 0.00 0.06 0.05 91 1016.9
20200331160544 46 125 2.0 4.0 0.00 0.06 0.05 92 1016.9
20200331160017 46 123 1.0 5.0 0.00 0.06 0.05 93 1017.0
20200331155513 46 75 1.0 3.0 0.01 0.06 0.05 93 1016.9
20200331154948 46 86 1.0 5.0 0.01 0.06 0.05 93 1016.8
20200331154421 46 18 1.0 5.0 0.01 0.06 0.05 93 1016.7
20200331153920 46 85 2.0 6.0 0.01 0.06 0.05 93 1016.8
20200331153352 46 79 2.0 6.0 0.01 0.06 0.05 92 1016.5
20200331152849 46 74 1.0 5.0 0.01 0.06 0.05 94 1016.6
20200331152348 46 94 2.0 5.0 0.01 0.06 0.05 93 1016.4
20200331151819 46 124 2.0 5.0 0.01 0.06 0.05 93 1016.4
20200331151316 46 95 2.0 7.0 0.01 0.06 0.05 93 1016.3
20200331150811 46 117 2.0 7.0 0.02 0.06 0.05 93 1016.5
20200331150307 46 81 2.0 5.0 0.02 0.06 0.05 93 1016.5
20200331145740 46 76 2.0 6.0 0.02 0.06 0.05 93 1016.6
20200331145222 46 84 2.0 6.0 0.02 0.05 0.04 93 1016.7
20200331144644 46 89 2.0 6.0 0.02 0.05 0.04 93 1016.8
20200331144141 46 94 2.0 6.0 0.03 0.05 0.04 92 1017.0
20200331143613 46 86 1.0 5.0 0.03 0.05 0.04 92 1017.0
20200331143112 47 193 1.0 6.0 0.03 0.05 0.04 92 1017.1
20200331142543 47 92 1.0 4.0 0.04 0.05 0.04 92 1017.2
20200331142041 47 105 1.0 5.0 0.04 0.05 0.04 93 1017.1
20200331141537 47 134 1.0 5.0 0.04 0.05 0.04 92 1017.0
20200331141036 47 121 2.0 7.0 0.04 0.05 0.04 93 1016.8
20200331140507 47 105 1.0 7.0 0.03 0.04 0.03 93 1016.9
20200331140005 47 243 1.0 5.0 0.03 0.04 0.03 93 1016.9
20200331135437 47 169 0.0 5.0 0.03 0.04 0.03 93 1016.9
20200331134935 46 65 0.0 2.0 0.02 0.03 0.02 92 1016.7
20200331134408 46 23 0.0 2.0 0.02 0.03 0.02 92 1016.7
20200331133905 46 46 0.0 2.0 0.01 0.02 0.01 91 1016.7
20200331133401 46 134 0.0 1.0 0.01 0.02 0.01 91 1016.8
20200331132835 46 141 0.0 1.0 0.00 0.01 0.00 90 1016.9
20200331132311 46 141 0.0 1.0 0.00 0.01 0.00 90 1017.1
20200331131803 47 141 0.0 1.0 0.00 0.01 0.00 89 1017.2
20200331131300 47 120 0.0 1.0 0.00 0.01 0.00 88 1017.2
20200331130733 47 99 0.0 3.0 0.00 0.01 0.00 87 1017.1
20200331130229 47 343 0.0 3.0 0.00 0.01 0.00 86 1017.1
20200331125703 47 84 0.0 2.0 0.00 0.01 0.00 84 1017.1
20200331125139 48 75 0.0 2.0 0.00 0.01 0.00 82 1017.0
20200331124612 48 26 0.0 2.0 0.00 0.01 0.00 81 1017.0
20200331124108 48 54 0.0 2.0 0.00 0.01 0.00 81 1016.8
20200331123605 48 289 0.0 2.0 0.00 0.01 0.00 81 1016.7
20200331123103 48 26 0.0 2.0 0.00 0.01 0.00 82 1016.7
20200331122537 48 345 0.0 1.0 0.00 0.01 0.00 81 1016.7
20200331122012 48 345 0.0 1.0 0.00 0.01 0.00 81 1016.6
20200331121445 48 345 0.0 2.0 0.00 0.01 0.00 81 1016.6
20200331120918 48 329 0.0 3.0 0.00 0.01 0.00 81 1016.5
20200331120417 47 330 1.0 3.0 0.00 0.01 0.00 81 1016.4
20200331115852 47 342 1.0 3.0 0.00 0.01 0.00 82 1016.4
20200331115328 47 3 1.0 3.0 0.00 0.01 0.00 81 1016.5
20200331114826 47 336 1.0 4.0 0.00 0.01 0.00 82 1016.5